{"data":{"norad_id":40286,"epoch":"2026-05-25T04:30:01.288224Z","epoch_age_seconds":68917,"freshness":"FRESH","line1":"1 40286U 14066A   26145.18751491  .00000517  00000+0  10320-3 0  9992","line2":"2 40286  98.3490 289.6515 0011050 308.1120  51.9086 14.66140106617847","mean_motion":14.66140106,"eccentricity":0.001105,"inclination_deg":98.349,"raan_deg":289.6515,"arg_perigee_deg":308.112,"mean_anomaly_deg":51.9086,"bstar":0.0001032,"rev_number":61784,"period_min":98.217079943927,"perigee_km":665.62540018225,"apogee_km":681.20933533499,"semimajor_km":7051.5543677586,"source":"CELESTRAK","updated_at":"2026-05-25T13:37:55.509814Z"}}